Volver al catálogo

ONEWEB-0293

ActivoComunicacionesPO
NORAD 49082·PAYLOAD·🇬🇧 United Kingdom

Lanzado Aug 21, 2021 desde Baikonur Cosmodrome

Loading…

Próximos Pases (próximas 24 horas)

TLE

ActualizadoSource: CelesTrak SupGP

Época: Sep 14, 2026, 14:08 UTC

1 49082C 21075H   26257.58942546  .00003016  00000+0  77771-2 0  2570
2 49082  87.9200 348.1110 0001712 102.0390  11.7002 13.17644947    13

Sigue ONEWEB-0293 en tiempo real con AllMySat

Download on the App Store